Погода в Няндоме

Хотите узнать прогноз погоды в Няндоме? Тогда Вам сюда: Погода в Няндоме

Поиск расширенной информации на нашем сайте:

Полезная информация:

Новости сайта



02.01.2020
Опубликован Долгосрочный прогноз погоды по городам России и ближнего зарубежья на январь 2020 года.
Карты: Прогноз на январь и февраль 2020 года, Сравнение прогнозируемой аномалии приземной температуры воздуха на январь 2020 года по разным моделям.




Погода в Няндоме - сегодня

Время (UTC), дата Ветер
(°,м/с) 
Видим.   Явления Облачность Т
(°С)
Тd
(°С)
f(%) Тe
(°С)
Pmin
(гПа)
dP
(гПа)
Po
(мм)
O2
(г/м3)
Тmin Tmax R s Состояние
почвы
15 29.11.20 130 (ЮВ) 50000 м    10/10 180 м 
[St]
-7.6 -8.7 92 -9  1038.9  -0.2  756  314    -7.6       
18 29.11.20 130 (ЮВ) 50000 м    10/10 180 м 
[St]
-6.9 -7.8 93 -8  1038.2  -0.6  756  313           
21 29.11.20 130 (ЮВ) 50000 м    10/10 120 м 
[St]
-5.9 -6.7 94 -7  1037.6  -0.6  755  312           
00 30.11.20 150 (ЮВ) 50000 м    10/10 100 м 
[St]
-5.2 -5.9 95 -7  1036.5  -0.9  755  311           
03 30.11.20 140 (ЮВ) 50000 м    10/10 60 м 
[St]
-4.9 -5.6 95 -6  1035.2  -1.2  754  310  -7.6      10  равномерный
сухой снег
100% 
06 30.11.20 150 (ЮВ) 30000 м    10/10 100 м 
[St]
-3.3 -3.9 96 -3  1034.4  -0.7  753  308           
09 30.11.20 130 (ЮВ) 30000 м    10/10 100 м 
[St]
-1.9 -2.3 97 -3  1033  -1.2  752  306           
12 30.11.20 160 (Ю) 40000 м    10/10 150 м 
[St]
-1.3 -1.8 96 -3  1031  -1.7  751  304           
15 30.11.20 170 (Ю) 50000 м    10/10 150 м 
[St]
-0.9 -1.8 94 -3  1029.2  -1.8  750  303    -0.9       
18 30.11.20 190 (Ю) 50000 м    10/10 150 м 
[St]
-0.8 -1.8 93 -3  1028.1  -1.1  749  303           
21 30.11.20 180 (Ю) 16000 м  снежные зёрна  10/10 180 м 
[St]
-0.9 -1.9 93 -4  1027.3  -0.8  748  303           
00 01.12.20 190 (Ю) 5{10}  12000 м  слаб. снег  10/9 180 м средняя 
[Frnb|As op]
-1 -2.1 92 -4  1026.8  -0.5  748  303           
03 01.12.20 190 (Ю) 5{10}  14000 м  слаб. снег  10/9 180 м средняя 
[Frnb|As op]
-1.3 -2.4 92 -5  1026.5  -0.3  748  303  -1.3    10  равномерный
мокрый или
старый снег
100% 
06 01.12.20 190 (Ю) н/о    н/о 
-1.7 -2.9 91 -4      -1.7         
09 01.12.20 200 (Ю) 9000 м  слаб. снег  10/8 240 м средняя 
[Frnb|As op]
-2.1 -3.4 91 -5  1026.6  -0.1  748  304           
12 01.12.20 200 (Ю) 4{10}  45000 м  {снег}  9/9 210 м кучево-дожд. 
[Cb cap]
-1.8 -3.1 91 -5  1026.8  0.2  748  304           
15 01.12.20 210 (ЮЗ) 4{10}  40000 м  в посл. час ливневой снег  10/10 210 м кучево-дожд. 
[Cb cap]
-1.9 -3.1 91 -5  1027.6  0.8  749  304    -1.3     
18 01.12.20 220 (ЮЗ) 50000 м  {ливн. осадки}  10/10 210 м кучево-дожд. 
[Cb cap]
-1.8 -3 91 -5  1028.3  0.7  749  304           
21 01.12.20 220 (ЮЗ) 50000 м    10/10 150 м 
[St]
-2 -3.1 92 -5  1028.7  0.4  749  305           
00 02.12.20 220 (ЮЗ) 4{10}  14000 м  слаб. снег  10/9 180 м средняя 
[Frnb|As op]
-2 -3.2 91 -5  1028.9  0.2  749  305           
03 02.12.20 220 (ЮЗ) 4{10}  9000 м  слаб. снег  10/10 120 м 
[Frnb|Ns]
-2.2 -2.9 95 -5  1029.6  0.7  750  305  -2.2    12  равномерный
сухой снег
100% 
06 02.12.20 230 (ЮЗ) 21000 м  слаб. снег  10/9 120 м средняя 
[Frnb|As op]
-1.8 -2.4 96 -5  1030.6  751  305           
09 02.12.20 220 (ЮЗ) 8000 м  слаб. снег  10/9 150 м средняя 
[Frnb|As op]
-1.5 -2.2 95 -3  1031.9  1.3  752  305           
12 02.12.20 230 (ЮЗ) 55000 м  {снег}  10/10 120 м 
[St]
-1.3 -1.9 96 -3  1032.4  0.5  752  305           
15 02.12.20 230 (ЮЗ) 50000 м    10/10 120 м 
[St]
-1.5 -1.9 97 -3  1033.4  0.8  753  305    -1.3     
Время (UTC), дата Ветер
(°,м/с) 
Видим.   Явления Облачность Т
(°С)
Тd
(°С)
f(%) Тe
(°С)
Pmin
(гПа)
dP
(гПа)
Po
(мм)
O2
(г/м3)
Тmin Tmax R s Состояние
почвы

Для получения пояснительной информации подведите курсор к названию столбца.

ПОГОДА в Няндоме - архив

Всё, что Вы хотите узнать о погоде в Няндоме - удобно и подробно!

Выберите нужную дату (начиная с 1 января 2019* года) и нажмите кнопку "Найти".
Будут отображены архивные сводки погоды по пункту Няндома, начиная с указанной даты.


Отображать данные в формате CSV (для использования в таблицах Excel)


Внимание! Наш архив погоды предназначен исключительно для личного некоммерческого использования в познавательных целях. Если Вам необходимы официальные справки о состоянии погоды (для производственных, юридических, коммерческих и т.п. целей), обращайтесь в органы Росгидромета.

*Примечание: данная дата относится к архиву по метеостанциям СССР (Россия, СНГ, Балтия).
Архив по метеостанциям Зарубежной Европы и Азии (кроме Китая) хранится 10 дней, по другим регионам земного шара (Китай, Африка, Америка, Австралия, Океания) - 1 день.

Няндома - район местоположения метеостанции


Название, широта, долгота, высота метеостанции:
Няндома 61.7°ш. 40.2°д. 233 м над ур. моря [Российская Федерация]

Дополнительная информация

В oтличие oт бoльшинства пoгoдных сайтoв мы публикуем пoдрoбную метеoинфoрмацию в детальнoм прoфессиoнальнoм фoрмате.

Характеристики температуры и влажнoсти вoздуха измеряются на высoте 2 м в тени вдали oт зданий и деревьев.
Скoрoсть ветра измеряется на высoте 10 м (на урoвне рoста челoвека скoрoсть ветра ниже в 1.5-2 раза). Если метеoстанция нахoдится в гoрoде или в лесу, тo скoрoсть ветра занижена на 2-4 м/с пo сравнению с oткрытым местoм. Скoрoсть ветра над акватoриями крупных рек и oзёр, а также на вершинах хoлмoв на 2-5 м/с выше, чем в oбычных услoвиях.
Атмoсфернoе давление в разных тoчках местнoсти мoжет значительнo oтличаться oт давления на метеoстанции, в зависимoсти oт услoвий рельефа (при пoдъёме на 10 м давление пoнижается примернo на 1 мм рт.ст.).